Weather Roundup
Issued by NWS Chicago, IL

Home | Current Version | Previous Version | Graphics & Text | Print | Product List | Glossary On
Versions: 1 2 3 4 5 6 7 8 9 10 11 12 13 14 15 16 17 18 19 20 21 22 23 24 25 26 27 28 29 30 31 32 33 34 35 36 37 38 39 40 41 42 43 44 45 46 47 48 49 50
000
NZUS59 KLOT 210410
HRRLOT

CHICAGO AREA WEATHER ROUNDUP
NATIONAL WEATHER SERVICE CHICAGO/ROMEOVILLE IL
1000 PM CST THU NOV 20 2014

NOTE: "FAIR" INDICATES FEW OR NO CLOUDS BELOW 12,000 FEET WITH NO
SIGNIFICANT WEATHER AND/OR OBSTRUCTIONS TO VISIBILITY.

* THESE STATIONS ARE NOT UNDER NWS QUALITY CONTROL. THEY ALSO MAY NOT
  REPORT WEATHER SUCH AS PRECIPITATION OR FOG.

ILZ005-006-012>014-019>023-210500-
NORTHEAST ILLINOIS

CITY           SKY/WX    TMP DP  RH WIND       PRES   REMARKS
OHARE          CLEAR     17   4  56 NW10      30.25R WCI   5
MIDWAY         CLEAR     20   4  50 W8        30.26R WCI  10
AURORA         CLEAR      8   1  73 W8        30.28R WCI  -4
LANSING*       CLEAR     18   4  52 W7        30.26R WCI   9
JOLIET*        CLEAR     16   5  62 NW3       30.29R
WAUKEGAN       CLEAR     15   1  53 NW6       30.24R WCI   6
DUPAGE AIRPORT CLEAR     15   3  59 NW7       30.26R WCI   5
WHEELING       CLEAR     17   4  56 NW9       30.27R WCI   6
KANKAKEE*      CLEAR     17   8  65 W8        30.29R WCI   7
MORRIS*        CLEAR     10   5  79 NW9       30.28R WCI  -2
LEWIS AIRPORT* CLEAR     14   6  68 NW8       30.27R WCI   3
NORTHERLY IS     N/A     21   6  52 W12         N/A  WCI   9
$$

WIZ051-052-058>065-066-070>072-210500-
SOUTHEAST WISCONSIN

CITY           SKY/WX    TMP DP  RH WIND       PRES   REMARKS
MILWAUKEE      PTCLDY    16  -1  47 NW13      30.24R WCI   2
KENOSHA*       CLEAR     12   1  61 W6        30.25R WCI   3
RACINE*        CLEAR     16  -1  47 NW8       30.26R WCI   5
BURLINGTON     CLEAR      9  -2  61 NW6       30.25R WCI   0
WAUKESHA       CLEAR     12   0  57 NW9       30.25R WCI   0
WEST BEND      CLEAR     12   0  57 W6        30.23R WCI   3
$$

INZ001>003-010>013-019-020-210500-
NORTHWEST INDIANA

CITY           SKY/WX    TMP DP  RH WIND       PRES   REMARKS
GARY*          CLEAR     21   4  47 W12       30.27R WCI  10
MICHIGAN CITY* NOT AVBL
RENSSELAER*    NOT AVBL
VALPARAISO     CLEAR     18   3  52 W8        30.24R WCI   8
$$

LMZ740>746-210500-
SOUTHERN LAKE MICHIGAN

STATION/POSITION TIME  SKY/WX   TEMP WIND        PRES    VSBY
                                AIR  DIR/SP/G
                 (UTC)          (F)  (DEG/KT/KT) (MB)    (MI)
HARRISON CRIB    0400            20  300/ 19/ 24   N/A
BURNHAM HARBOR   0400            21  300/  9/ 16   N/A
CALUMET HARBOR   0400            20  270/  8/ 13 1023.3R
BURNS HARBOR     NOT AVBL
MICHIGAN CITY    0400            24  280/ 21/ 27   N/A
$$

ABBREVIATIONS USED IN REMARKS
   TC - TEMPERATURE IN CELSIUS
  WCI - WIND CHILL INDEX
   HX - HEAT INDEX
  VSB - VISIBILITY
$$


USA.gov is the U.S. government's official web portal to all federal, state and local government web resources and services.